sat.trackr.live / text

‹ back to catalog

STARLINK-34653

NORAD 64917 · 2025-157P

PAYLOAD ACTIVE UNKNOWN

§ Identity

Operator
Country
US
Launch date
2025-07-26
Launch site
AFETR
Launch vehicle
Mass (kg)
RCS (m²)

Purposes: comms

External: N2YO · Heavens-Above · Gunter

§ Orbital elements

Epoch: 2026-05-24T23:33:22.477824Z

Period
94.01 min
Inclination
53.1605°
Eccentricity
0.0001232
Mean motion
15.31716096 rev/d
Perigee alt
469.8 km
Apogee alt
471.5 km
Semi-major
6,848.8 km
B*
9.6478e-4
RAAN
351.3506°
Arg perigee
86.4550°
Mean anomaly
273.6592°
Rev number
4,775

§ Raw data

STARLINK-346531 64917U 25157P   26144.98151016  .00029708  00000+0  96478-3 0  99972 64917  53.1605 351.3506 0001232  86.4550 273.6592 15.31716096 47754

JSON: /api/v1/satellites/64917 · /tle

For live sub-satellite position, see the globe view (requires WebGL).

§ Visibility from observer

Set your observer location to see the next 7 days of passes ≥ 10°. The values pass through the URL so the page stays shareable.

No JS? Fill the form by hand. The geolocation button needs JavaScript.